Wind_Speed
13 15 15 13 13 13 10 11 12 13 13 13 13 13 13 12 12 11 10 11 9 8 8 10 11 10 10 11 13 14 12 12 12 13 13 12 12 14 12 13 14 12 13
19 16 16 13 14 14 11 9 11 11 12 12 13 12 13 12 10 9 10 11 9 9 10 9 11 10 9 10 11 11 12 12 12 13 13 13 12 12 12 12 12 12 12
20 16 14 12 13 14 11 10 10 11 10 10 11 11 11 12 11 11 11 10 10 10 10 10 10 9 9 10 10 11 11 11 12 12 12 11 11 11 12 12 11 12 12
18 15 14 12 13 13 11 9 10 9 10 9 10 11 11 11 11 12 11 11 11 9 12 11 11 10 9 10 10 10 10 10 9 9 8 9 9 11 11 11 11 11 11
16 14 13 14 13 11 10 9 9 10 9 9 10 10 12 11 10 11 11 11 11 10 11 10 10 9 7 8 9 9 8 9 9 7 6 8 8 10 12 11 11 11 11
15 13 13 13 13 12 10 9 8 9 9 9 9 10 11 10 9 9 10 11 11 10 10 9 8 7 7 7 7 7 5 6 5 5 5 8 7 9 11 12 12 12 12
15 13 11 12 11 10 9 9 9 9 9 9 9 10 10 10 8 9 8 10 11 9 9 8 7 6 6 6 6 4 2 6 7 6 5 6 7 10 11 11 12 12 12
16 13 11 11 10 10 9 9 9 10 9 8 10 9 9 9 8 7 8 7 8 8 7 6 5 4 4 5 4 2 1 3 8 8 8 8 9 10 10 11 12 12 12
14 13 11 10 10 9 9 9 9 9 9 9 8 7 8 7 7 6 6 5 6 5 4 3 3 3 3 4 3 2 1 1 4 7 9 8 8 9 9 11 12 12 13
13 12 10 10 9 9 8 9 9 9 8 7 6 8 6 5 5 7 5 4 4 3 3 3 2 3 3 3 3 3 2 2 5 6 6 4 4 7 10 11 12 13 13
12 12 10 10 9 10 9 8 7 7 7 6 6 5 5 4 4 3 3 3 2 2 3 4 4 2 2 4 3 2 5 3 3 7 6 8 8 9 11 11 11 13 14
15 14 12 10 9 9 8 8 7 7 7 7 6 6 4 4 3 3 2 2 0 1 1 1 1 2 2 4 4 4 8 7 4 6 8 11 11 11 11 9 9 11 13
15 13 13 11 10 9 8 9 9 8 8 7 7 5 4 3 3 2 2 2 2 3 2 3 4 6 5 6 8 8 9 10 10 9 7 11 13 14 10 11 12 12 12
13 12 12 13 11 10 9 10 8 8 8 7 7 6 5 4 3 2 2 2 2 3 4 4 5 6 7 9 11 12 13 11 11 12 12 9 13 16 13 14 13 13 14
13 13 14 14 13 12 12 9 9 9 8 7 7 7 7 5 4 4 4 4 4 4 5 5 7 9 10 11 13 14 15 13 14 13 12 13 14 15 16 17 14 18 13
13 13 15 15 15 14 13 12 10 10 9 9 9 8 9 7 6 6 6 6 6 7 7 8 10 10 11 10 11 12 13 14 15 15 16 15 16 16 19 20 21 17 20
15 12 15 15 15 15 14 13 10 10 10 9 9 10 10 9 9 9 8 8 8 9 11 12 12 12 12 12 12 11 13 14 15 17 17 18 16 18 19 22 23 21 21
16 16 14 15 16 16 15 15 12 11 10 10 10 10 11 11 11 11 11 9 8 8 8 9 10 11 12 11 13 13 10 12 12 13 15 17 16 13 18 23 27 27 25
19 18 19 19 18 19 17 14 13 10 11 10 10 12 13 13 12 13 11 10 10 8 8 7 9 10 12 12 12 12 12 12 9 5 8 9 12 14 20 20 26 29 28
20 20 20 20 20 20 16 16 12 12 12 12 12 14 15 15 15 15 12 11 10 9 8 8 11 9 11 11 12 13 13 9 5 5 9 5 6 8 12 15 20 28 30
20 20 22 23 24 20 17 15 14 15 13 12 12 11 12 14 15 15 12 12 13 11 8 8 8 9 10 7 10 12 9 7 4 3 8 5 5 6 9 10 14 21 27
26 26 24 28 27 28 21 17 14 12 13 13 12 13 11 12 13 15 14 14 14 10 11 10 9 8 7 6 7 9 5 3 2 12 5 4 5 7 10 12 14 16 22
26 26 27 31 30 30 28 18 16 13 14 13 17 15 14 13 12 13 14 14 14 11 10 10 10 8 8 7 5 5 4 4 13 4 6 2 5 11 11 11 15 15 15
28 27 27 30 32 30 29 21 20 19 17 17 16 16 13 11 12 14 14 15 14 12 13 10 8 8 7 8 8 6 7 8 3 7 5 9 10 11 11 10 9 11 12
24 26 26 27 29 29 28 29 24 22 19 16 13 14 15 11 14 15 15 15 15 14 15 16 13 10 8 9 9 9 8 7 3 5 8 13 12 12 11 11 4 6 7
24 24 23 24 31 30 31 29 28 25 23 16 14 15 14 9 7 12 14 15 15 15 15 14 15 15 12 10 10 9 9 6 9 6 7 12 12 9 9 8 2 2 3
Wind_Direction
157 158 153 152 153 151 144 125 124 128 127 128 134 140 145 145 136 144 142 145 144 136 132 126 126 121 115 115 115 118 125 127 126 126 123 123 125 126 124 126 119 124 122
155 156 153 148 154 155 146 126 123 121 121 130 136 140 141 141 140 139 136 141 141 133 129 128 123 123 119 118 122 125 126 129 130 131 133 128 123 129 128 132 129 132 131
152 153 152 144 149 154 147 133 121 120 121 128 131 132 131 138 136 127 127 130 126 127 125 119 114 119 122 122 126 127 127 136 134 134 137 131 131 136 137 136 136 134 135
150 153 150 144 147 148 147 136 121 125 125 130 129 134 130 126 130 128 129 138 133 130 125 122 125 126 131 126 129 133 135 131 135 142 140 141 137 149 147 146 142 142 142
150 151 154 151 140 147 149 134 134 131 129 133 131 133 122 131 125 130 132 133 123 119 123 128 127 127 128 128 136 139 145 140 152 139 145 158 151 160 157 155 150 149 146
151 153 157 156 153 157 150 145 139 135 135 129 140 131 130 126 126 126 123 127 128 129 126 124 117 125 126 134 145 144 160 158 141 144 143 163 160 176 166 164 166 160 160
153 156 156 153 154 157 156 150 147 144 140 144 138 124 130 126 138 123 123 123 130 124 116 112 124 142 138 140 149 152 205 225 207 177 169 179 186 183 176 174 173 174 170
156 156 160 162 155 158 158 153 153 152 146 145 144 130 133 132 118 131 128 120 112 109 111 112 133 145 154 174 171 165 46 143 196 200 186 186 199 185 191 179 180 181 181
158 158 159 161 161 165 167 155 150 150 156 150 153 147 133 136 137 137 126 129 115 110 111 118 135 139 198 200 215 249 103 155 166 166 178 188 195 195 200 192 189 192 188
163 165 164 163 165 162 164 161 160 157 150 160 157 150 149 120 141 137 126 127 110 97 101 114 145 151 206 220 238 270 308 225 224 205 210 184 218 219 212 207 200 198 194
172 177 174 172 168 172 165 165 156 154 156 161 153 154 133 152 142 119 158 123 91 77 83 99 118 125 227 244 247 302 281 272 252 239 201 191 212 230 221 214 213 206 206
181 187 185 181 176 174 167 166 169 159 162 168 172 174 176 174 163 141 168 153 150 356 29 112 222 302 316 274 279 255 279 287 269 230 230 226 221 214 220 224 232 228 223
187 191 194 188 183 180 176 174 176 173 173 182 186 189 192 191 183 179 212 243 272 272 276 290 287 277 286 294 299 282 279 284 282 271 250 226 222 216 231 218 218 225 233
196 201 198 196 191 188 185 186 186 184 183 187 193 191 196 199 206 210 245 263 255 260 278 278 287 289 288 289 286 287 285 275 276 276 273 248 236 238 227 217 220 221 223
202 198 197 196 197 194 193 192 189 189 195 198 199 203 203 212 232 251 266 273 278 275 289 287 288 291 294 288 287 289 281 275 272 273 266 263 246 244 228 222 229 217 227
202 197 193 196 200 198 198 196 192 192 198 205 208 209 218 225 239 254 269 281 275 275 281 291 295 290 287 283 284 286 285 274 276 275 270 263 255 243 237 227 231 224 222
209 200 199 199 201 201 201 199 197 200 205 212 220 222 227 236 254 264 270 277 284 285 284 284 288 296 296 297 296 288 285 289 285 285 278 272 263 252 243 235 228 230 227
209 206 202 200 202 202 201 198 200 205 211 220 227 232 239 246 258 270 274 279 287 290 280 276 280 283 290 296 303 311 294 287 280 287 286 274 262 254 254 238 236 230 230
209 206 206 204 205 205 208 209 214 221 228 238 242 244 246 251 258 268 270 277 287 280 283 273 277 282 304 309 304 301 304 294 291 316 327 282 259 252 239 237 235 231 229
212 210 210 209 212 214 214 218 225 233 241 247 248 242 248 251 256 262 265 270 273 270 267 274 287 287 291 297 305 312 310 305 289 256 327 290 267 265 254 248 232 227 230
214 211 211 211 215 212 211 215 227 232 236 243 237 243 255 250 253 261 256 262 264 260 262 278 281 294 309 319 316 326 319 320 273 245 319 319 299 289 284 263 232 228 228
215 212 212 216 216 219 213 214 214 221 229 231 235 246 259 246 240 247 252 253 256 259 269 272 281 295 298 316 326 322 336 354 4 315 328 305 306 291 290 274 256 234 230
214 213 213 220 218 221 219 215 223 229 231 241 241 246 248 251 243 243 248 252 258 257 269 276 272 271 298 312 307 319 332 334 327 322 313 293 316 320 305 285 263 253 235
213 212 214 220 221 223 222 215 212 216 220 231 232 229 240 253 241 250 254 256 262 260 271 282 279 269 269 303 317 326 308 293 328 318 325 325 330 338 329 315 280 250 251
206 205 210 217 221 220 221 219 215 218 226 235 229 228 236 259 246 250 258 262 266 266 270 278 282 279 276 278 300 296 304 304 287 239 308 325 333 347 346 346 315 270 259
204 202 203 208 220 221 224 224 218 218 222 224 227 225 231 242 246 248 256 262 266 267 272 279 279 276 271 268 278 275 281 288 315 301 292 318 319 332 343 5 21 352 262
Height
818 820 821 824 826 827 828 829 830 830 831 832 833 834 834 836 837 837 837 838 838 839 840 839 840 841 841 842 841 842 843 845 846 846 847 848 849 850 850 851 852 854 855
816 819 821 824 827 829 830 830 831 832 832 833 834 834 835 836 837 838 839 840 840 841 842 842 842 843 844 844 844 844 845 847 848 848 848 850 851 852 853 853 854 855 857
816 819 822 824 827 829 831 832 833 833 834 834 835 836 836 837 838 840 841 842 841 843 843 844 844 845 846 847 847 848 849 849 849 850 851 852 853 853 855 856 856 857 858
817 821 824 825 828 829 831 833 834 834 835 836 837 838 838 839 840 841 842 843 844 843 844 844 845 846 846 848 849 850 851 851 852 852 853 854 855 855 856 857 857 858 859
819 822 825 827 828 830 832 833 834 835 837 838 839 840 839 840 842 843 844 845 846 846 846 845 847 847 848 850 851 852 853 853 853 853 854 855 856 856 856 857 858 859 861
821 824 826 828 829 832 833 835 835 837 838 839 839 840 841 842 844 845 846 846 847 848 848 848 850 850 850 852 852 854 854 855 855 855 856 856 857 857 857 858 859 860 861
822 825 827 829 831 833 834 835 837 838 839 840 841 841 842 843 845 847 848 848 849 849 850 851 851 851 852 853 854 854 855 855 856 855 857 858 858 857 858 859 859 860 861
822 825 827 829 831 833 835 836 838 839 840 841 842 842 843 845 847 848 848 850 850 851 851 852 852 853 853 854 855 855 855 855 854 854 856 856 857 857 858 859 860 861 861
823 825 828 830 832 834 835 837 838 839 840 842 843 844 845 847 848 849 850 851 852 853 853 853 854 854 855 855 855 856 856 855 854 853 854 856 857 857 858 859 859 860 861
824 826 829 830 832 835 836 837 839 840 841 843 844 845 846 847 850 850 851 852 853 853 853 854 854 855 855 855 855 855 855 854 854 854 855 856 857 858 857 857 857 859 860
824 826 829 831 833 834 837 838 840 842 843 844 846 846 847 849 851 851 851 852 853 853 853 854 854 855 855 855 857 857 856 853 853 854 854 855 855 856 856 856 857 858 859
823 825 828 830 833 835 837 838 840 842 844 845 846 847 847 849 851 851 852 853 854 854 854 854 855 855 854 854 855 855 854 853 853 853 854 853 854 854 855 855 856 858 859
821 824 826 829 831 833 836 838 840 841 843 844 845 846 848 849 851 851 852 853 853 853 854 854 854 853 853 853 853 852 852 852 851 849 851 851 851 851 853 854 855 855 856
820 823 826 828 830 833 835 837 839 841 843 844 846 846 848 850 851 851 852 852 852 852 852 853 853 852 852 851 850 850 849 850 848 847 847 848 849 848 849 851 853 853 853
817 821 823 826 828 831 833 836 838 840 842 844 845 846 847 849 850 851 851 851 851 852 851 851 850 850 849 848 848 847 846 846 846 846 844 844 845 845 847 848 848 850 851
816 818 821 824 826 829 831 833 836 838 841 842 844 845 846 848 848 850 850 851 851 851 850 849 848 847 846 846 845 843 842 841 841 841 840 840 840 841 842 844 845 846 847
813 817 820 823 825 827 830 832 835 837 840 841 842 843 845 846 846 848 848 849 849 849 848 847 847 845 844 843 841 841 840 838 837 836 835 835 836 837 837 838 839 842 843
811 814 818 821 823 826 828 830 833 835 838 839 840 841 842 843 845 845 846 847 847 847 846 845 845 844 842 841 840 838 837 836 834 832 830 829 829 829 830 832 833 836 838
807 811 814 817 820 823 826 829 832 834 836 837 838 839 840 841 842 843 844 845 845 844 843 844 843 842 841 840 838 835 833 831 831 829 828 826 825 823 823 825 825 828 832
804 807 810 814 818 821 825 828 830 832 833 834 835 836 837 839 839 840 842 842 842 841 840 841 840 841 839 838 835 832 830 828 827 825 825 824 822 821 820 819 820 822 824
800 804 806 810 814 818 822 825 828 829 830 831 832 833 834 835 836 837 838 839 838 837 839 838 838 838 837 836 834 830 828 825 823 823 822 821 820 819 818 816 817 817 818
793 796 801 804 809 812 817 821 824 825 827 829 830 830 831 832 833 834 834 834 834 836 837 836 837 837 836 835 834 831 825 825 824 822 820 819 818 816 814 813 812 812 812
788 790 794 798 802 807 812 816 819 822 824 826 827 828 829 829 830 830 830 831 833 834 835 835 834 836 836 834 833 833 828 827 824 821 819 817 816 814 812 810 807 807 808
779 783 788 792 796 801 806 811 815 818 820 822 823 825 826 827 827 828 828 829 831 832 832 833 834 834 834 833 832 830 830 830 827 819 817 817 815 811 809 806 805 804 804
773 778 782 787 791 796 800 805 809 814 817 820 821 822 824 824 824 825 825 827 828 829 830 831 831 831 831 831 830 829 829 827 827 827 817 814 813 811 807 804 803 802 802
768 773 777 782 785 790 795 799 804 808 812 815 817 818 820 822 822 822 823 823 824 825 826 827 827 827 827 827 827 826 826 826 823 825 821 815 814 809 807 804 802 800 801